This demonstration page uses our WeatherBlox Daily Observations layout. Learn more.

Hourly Observations for February 4, 2018

Temp ( °F °C ) Dew Point ( °F °C ) Humidity (%) Winds ( mph kmh ) Pressure ( in mb ) Visibility ( mi km ) Precip ( " mm )
12:15 am 00:15 Cloudy 24 -4.7 18 -8 78 78 N 22 35 30.15 1021 10 16.0934 0 0
12:35 am 00:35 Cloudy 22 -5.3 17 -8.6 78 78 N 23 37 30.18 1022 10 16.0934 0 0
12:55 am 00:55 Cloudy 22 -5.7 16 -8.7 80 80 N 22 35 30.18 1022 10 16.0934 0 0
1:15 am 01:15 Cloudy 21 -6.1 15 -9.5 77 77 N 24 39 30.18 1022 10 16.0934 0 0
1:35 am 01:35 Mostly Cloudy 19 -7.1 13 -10.7 76 76 N 21 33 30.21 1023 10 16.0934 0 0
1:55 am 01:55 Mostly Cloudy 18 -7.9 11 -11.4 76 76 N 22 35 30.21 1023 10 16.0934 0 0
2:15 am 02:15 Mostly Cloudy 17 -8.5 11 -11.5 79 79 N 20 31 30.24 1024 10 16.0934 0 0
2:35 am 02:35 Cloudy with Light Snow 17 -8.5 12 -11.1 82 82 N 18 30 30.27 1025 7 11.26538 0 0
2:55 am 02:55 Cloudy 16 -8.9 10 -12 78 78 N 20 31 30.3 1026 10 16.0934 0 0
3:15 am 03:15 Windy with Snow Likely 15 -9.4 9 -12.6 78 78 N 20 31 30.33 1027 7 11.26538 0 0
3:35 am 03:35 Cloudy 14 -9.8 9 -13 78 78 N 23 37 30.3 1026 10 16.0934 0 0
3:55 am 03:55 Windy with Snow Likely 13 -10.5 8 -13.5 79 79 N 22 35 30.3 1026 5 8.0467 0 0
4:15 am 04:15 Windy with Snow Likely 12 -11.1 7 -14 79 79 N 25 41 30.3 1026 5 8.0467 0 0
4:35 am 04:35 Windy with Snow Likely 12 -11.3 8 -13.6 83 83 N 20 31 30.36 1028 5 8.0467 0 0
4:55 am 04:55 Cloudy with Snow 10 -12 7 -14 85 85 N 21 33 30.36 1028 1 1.60934 0 0
5:15 am 05:15 Cloudy with Snow 9 -12.6 6 -14.2 88 88 N 17 28 30.36 1028 0.75 1.207005 0 0
5:35 am 05:35 Windy with Snow Likely 9 -12.7 6 -14.3 88 88 N 20 31 30.39 1029 1.25 2.011675 0 0
5:55 am 05:55 Cloudy with Light Snow 8 -13.2 5 -15.1 86 86 N 18 30 30.42 1030 1.75 2.816345 0 0
6:15 am 06:15 Cloudy with Snow 8 -13.6 4 -15.4 86 86 N 20 31 30.48 1032 1 1.60934 0 0
6:35 am 06:35 Cloudy with Snow 7 -14 4 -15.8 86 86 N 23 37 30.48 1032 0.5 0.80467 0 0
6:55 am 06:55 Cloudy with Snow 7 -14.1 4 -15.8 87 87 N 17 28 30.48 1032 0.75 1.207005 0 0
7:15 am 07:15 Cloudy with Light Snow 6 -14.4 3 -16.1 87 87 N 15 24 30.48 1032 2 3.21868 0.01 0.254
7:35 am 07:35 Cloudy with Light Snow 6 -14.7 2 -16.5 86 86 N 15 24 30.5 1033 1.25 2.011675 0.01 0.254
7:55 am 07:55 Cloudy with Snow 5 -15.2 1 -17 86 86 N 18 30 30.53 1034 0.75 1.207005 0.02 0.508
8:15 am 08:15 Cloudy with Light Snow 5 -15.2 1 -17.1 86 86 N 14 22 30.59 1036 1.25 2.011675 0 0
8:35 am 08:35 Windy with Snow Likely 4 -15.5 1 -17.5 85 85 NNW 21 33 30.62 1037 0.75 1.207005 0 0
8:55 am 08:55 Cloudy with Snow 4 -15.5 1 -17.5 85 85 N 17 28 30.62 1037 0.25 0.402335 0 0
9:15 am 09:15 Cloudy with Light Snow 4 -15.5 1 -17.4 86 86 N 14 22 30.62 1037 0.75 1.207005 0 0
9:35 am 09:35 Cloudy with Mist and Fog 5 -15.2 0 -17.8 81 81 N 16 26 30.62 1037 4 6.43736 0.01 0.254
9:55 am 09:55 Cloudy with Haze 5 -15 1 -17.5 81 81 NNW 14 22 30.62 1037 4 6.43736 0.01 0.254
10:15 am 10:15 Cloudy 5 -15 -1 -18.6 74 74 N 17 28 30.62 1037 7 11.26538 0 0
10:35 am 10:35 Mostly Cloudy 6 -14.6 -1 -18.5 72 72 NNW 15 24 30.65 1038 10 16.0934 0 0
10:55 am 10:55 Sunny 7 -14.1 0 -18 73 73 NNW 14 22 30.62 1037 10 16.0934 0 0
11:15 am 11:15 Sunny 7 -14 0 -17.8 73 73 N 10 17 30.62 1037 10 16.0934 0 0
11:35 am 11:35 Mostly Cloudy 7 -13.9 -1 -18.1 71 71 N 10 17 30.62 1037 10 16.0934 0 0
11:55 am 11:55 Mostly Cloudy 7 -13.9 -1 -18.2 70 70 NNW 12 19 30.62 1037 10 16.0934 0 0
12:15 pm 12:15 Cloudy 8 -13.6 -1 -18.6 66 66 N 13 20 30.62 1037 10 16.0934 0 0
12:35 pm 12:35 Partly Cloudy 8 -13.6 -1 -18.6 66 66 NNW 13 20 30.62 1037 10 16.0934 0 0
12:55 pm 12:55 Sunny 8 -13.4 -1 -18.6 65 65 N 12 19 30.62 1037 10 16.0934 0 0
1:15 pm 13:15 Sunny 8 -13.5 -1 -18.5 66 66 NNW 10 17 30.59 1036 10 16.0934 0 0
1:35 pm 13:35 Sunny 8 -13.2 -1 -18.3 66 66 NW 8 13 30.59 1036 10 16.0934 0 0
1:55 pm 13:55 Sunny 8 -13.2 -1 -18.5 65 65 N 6 9 30.59 1036 10 16.0934 0 0
2:15 pm 14:15 Partly Cloudy 9 -13 -1 -18.2 65 65 NNW 9 15 30.56 1035 10 16.0934 0 0
2:35 pm 14:35 Sunny 9 -12.9 -1 -18.2 65 65 NW 9 15 30.56 1035 10 16.0934 0 0
2:55 pm 14:55 Sunny 9 -12.6 0 -17.9 65 65 NNW 8 13 30.56 1035 10 16.0934 0 0
3:15 pm 15:15 Sunny 8 -13.1 -1 -18.1 66 66 NW 9 15 30.56 1035 10 16.0934 0 0
3:35 pm 15:35 Sunny 8 -13.1 -1 -18.4 65 65 NNW 9 15 30.56 1035 10 16.0934 0 0
3:55 pm 15:55 Sunny 8 -13.2 -1 -18.5 65 65 NNW 6 9 30.56 1035 10 16.0934 0 0
4:15 pm 16:15 Sunny 9 -13 0 -18 66 66 WNW 7 11 30.56 1035 10 16.0934 0 0
4:35 pm 16:35 Sunny 8 -13.3 -1 -18.5 65 65 WNW 5 7 30.56 1035 10 16.0934 0 0
4:55 pm 16:55 Sunny 8 -13.2 -1 -18.3 66 66 Calm 30.53 1034 10 16.0934 0 0
5:15 pm 17:15 Sunny 8 -13.2 -1 -18.1 67 67 Calm 30.53 1034 10 16.0934 0 0
5:35 pm 17:35 Sunny 7 -14 -1 -18.3 70 70 Calm 30.53 1034 10 16.0934 0 0
5:55 pm 17:55 Sunny 8 -13.5 0 -18 69 69 Calm 30.53 1034 10 16.0934 0 0
6:15 pm 18:15 Clear 7 -13.7 0 -17.9 71 71 Calm 30.53 1034 10 16.0934 0 0
6:35 pm 18:35 Clear 8 -13.5 -1 -18.1 69 69 Calm 30.5 1033 10 16.0934 0 0
6:55 pm 18:55 Clear 8 -13.6 1 -17.2 75 75 Calm 30.5 1033 10 16.0934 0 0
7:15 pm 19:15 Clear 7 -14.1 1 -17.5 76 76 S 3 6 30.5 1033 10 16.0934 0 0
7:35 pm 19:35 Clear 6 -14.3 0 -17.8 75 75 S 6 9 30.5 1033 10 16.0934 0 0
7:55 pm 19:55 Clear 5 -14.9 -2 -18.7 73 73 S 3 6 30.48 1032 10 16.0934 0 0
8:15 pm 20:15 Partly Cloudy 4 -15.5 -2 -19 75 75 S 5 7 30.48 1032 10 16.0934 0 0
8:35 pm 20:35 Partly Cloudy 4 -15.5 -2 -19 75 75 S 3 6 30.48 1032 10 16.0934 0 0
8:55 pm 20:55 Clear 4 -15.5 -2 -18.7 77 77 S 7 11 30.48 1032 10 16.0934 0 0
9:15 pm 21:15 Clear 5 -15 -1 -18.5 75 75 S 8 13 30.45 1031 10 16.0934 0 0
9:35 pm 21:35 Partly Cloudy 4 -15.5 -2 -18.9 75 75 S 8 13 30.45 1031 10 16.0934 0 0
9:55 pm 21:55 Clear 4 -15.6 -2 -18.8 77 77 S 8 13 30.45 1031 10 16.0934 0 0
10:15 pm 22:15 Partly Cloudy 2 -16.9 -3 -19.7 79 79 S 6 9 30.48 1032 10 16.0934 0 0
10:35 pm 22:35 Mostly Cloudy 3 -16.1 -2 -18.7 81 81 S 7 11 30.42 1030 10 16.0934 0 0
10:55 pm 22:55 Mostly Cloudy 5 -15.2 0 -18 79 79 S 7 11 30.39 1029 10 16.0934 0 0
11:15 pm 23:15 Partly Cloudy 5 -14.9 0 -17.7 79 79 S 12 19 30.39 1029 10 16.0934 0 0
11:35 pm 23:35 Clear 5 -14.8 1 -17.4 81 81 S 8 13 30.39 1029 10 16.0934 0 0
11:55 pm 23:55 Clear 5 -15.1 0 -17.8 80 80 S 9 15 30.39 1029 10 16.0934 0 0

Powered by AerisWeather